Terug naar catalogus

ASIASAT 3S

ActiefCommunicatieGEO
NORAD 25657·PAYLOAD·🇸🇭 SH

Gelanceerd Mar 21, 1999 vanaf Baikonur Cosmodrome

Loading…

TLE

VersSource: Space-Track

Epoch: Sep 14, 2026, 22:00 UTC

1 25657U 99013A   26257.91714740 -.00000107  00000-0  00000-0 0  9991
2 25657  10.0174  53.9510 0003067  85.7273 112.0263  0.98872756100470

Volg ASIASAT 3S in realtime met AllMySat

Download on the App Store